RH
64 72 61 60 62 57 64 67 71 69 70 72 71 70 67 65 60 60 58 58 60 66 68 75 83 76 84 89 78 53 67 61 58 73 75 74 87 72 73 67 64 68 60 50 47 50 47
67 61 59 62 63 65 66 58 63 69 72 68 63 63 66 66 63 64 63 61 64 67 68 73 80 81 89 92 48 50 70 60 68 78 83 83 79 69 61 61 63 55 52 51 51 51 51
62 58 58 68 60 56 57 60 64 64 66 64 63 67 68 66 66 68 64 65 67 66 67 69 76 77 89 71 43 57 65 74 72 73 81 75 75 64 64 67 56 57 61 62 56 55 55
60 62 71 61 58 60 69 66 67 64 64 65 66 67 67 66 68 68 68 70 73 71 69 69 73 87 79 55 47 45 46 50 54 64 68 67 78 68 69 63 60 64 70 80 56 53 48
62 63 58 61 59 63 69 69 69 65 63 65 66 68 65 66 69 72 72 69 71 69 67 66 88 83 72 57 60 43 47 52 63 72 76 72 78 81 69 76 82 77 86 82 68 52 53
65 58 65 64 61 68 68 66 64 61 61 64 66 63 63 64 66 73 77 71 72 71 74 75 84 88 70 64 56 45 44 52 72 81 83 85 95 95 89 81 90 86 85 80 70 53 55
59 63 68 60 68 64 61 61 59 61 62 64 62 64 64 65 64 78 82 92 86 93 85 84 83 74 61 53 49 53 44 57 76 79 93 86 93 95 90 75 65 59 76 73 57 46 50
66 65 64 66 64 63 60 61 63 64 63 62 63 66 66 66 66 69 87 96 84 84 87 78 82 76 58 50 64 56 47 69 85 92 85 92 91 74 77 76 80 83 72 75 58 50 51
65 65 59 67 65 66 64 65 65 62 65 66 60 61 65 67 68 84 90 83 85 78 96 80 77 78 56 51 63 63 52 61 77 82 75 83 63 56 63 71 75 70 78 76 69 57 55
66 56 62 68 67 65 64 64 65 59 65 60 60 61 63 67 80 91 85 74 86 78 98 94 92 79 64 60 70 51 52 56 65 74 64 70 58 58 67 67 60 76 59 58 62 68 81
66 61 64 68 68 68 64 63 61 61 60 64 68 69 69 71 92 96 77 90 84 86 97 92 92 61 60 74 67 62 50 52 70 66 66 75 68 63 66 65 55 66 57 60 68 81 84
65 62 62 70 69 67 63 65 61 58 62 70 73 76 79 88 90 76 83 83 89 96 96 99 94 90 80 68 66 62 58 51 51 60 59 65 54 59 59 53 53 55 60 72 81 86 95
63 63 61 69 68 67 66 66 59 62 68 73 79 82 84 82 85 86 89 90 93 97 98 100 96 79 76 75 77 69 73 75 80 93 96 69 68 58 55 66 62 63 78 96 94 97 88
58 62 66 61 63 61 68 62 62 64 71 82 84 81 86 86 85 88 90 95 92 86 88 88 76 76 91 74 76 74 76 85 72 75 92 89 89 66 59 67 73 76 76 91 84 96 90
57 62 62 62 59 62 67 62 63 65 76 85 81 94 96 91 86 84 94 99 97 97 98 85 74 87 98 86 80 72 76 79 73 72 83 89 81 59 59 58 61 78 88 71 88 88 97
61 61 64 58 61 62 67 64 64 70 80 82 97 94 96 86 78 89 100 98 99 93 79 73 96 84 98 92 92 78 74 67 66 60 67 74 90 63 60 55 61 64 65 91 95 89 90
59 63 64 66 66 63 67 65 65 76 82 80 93 95 88 85 85 95 100 100 98 71 70 66 86 75 80 83 80 79 73 64 56 61 59 68 80 83 65 79 82 80 88 80 81 85 95
62 64 61 62 66 67 66 67 66 73 80 86 94 98 85 86 98 99 100 100 90 84 68 70 59 60 71 75 78 71 78 61 52 54 69 64 81 96 87 68 64 70 75 74 92 79 95
61 64 59 60 65 66 66 68 66 71 77 98 95 97 91 89 100 100 99 94 88 85 81 62 59 56 58 68 74 69 67 60 50 52 63 64 83 93 82 75 73 86 74 72 75 89 96
61 63 59 59 63 66 68 68 67 70 77 95 95 97 96 98 92 97 98 94 86 72 63 55 56 51 56 63 66 82 75 64 62 60 65 61 81 80 89 78 83 88 82 77 83 99 92
62 63 59 59 61 65 68 67 66 70 76 95 98 96 95 99 96 91 88 93 77 76 66 56 56 52 58 68 71 80 76 74 64 62 61 66 88 88 84 78 80 80 80 79 90 76 94
63 63 59 59 59 62 66 66 66 71 76 94 97 98 86 94 78 89 90 86 79 76 72 71 73 68 63 74 72 74 76 79 76 74 75 74 93 97 96 76 81 89 79 79 79 74 76
63 66 59 59 59 60 60 62 64 67 78 97 93 91 97 85 86 86 82 75 74 69 65 65 72 79 85 82 73 78 62 64 70 76 78 74 87 98 91 80 89 94 84 77 80 80 71
62 68 59 59 59 59 59 60 61 66 69 97 97 98 95 95 87 77 72 78 74 74 76 81 80 82 82 70 69 67 76 78 72 64 64 83 89 96 97 88 95 66 62 63 71 68 76
60 67 61 59 59 60 58 59 59 62 64 87 95 99 98 91 96 76 72 80 74 77 86 91 89 88 82 78 88 86 86 76 79 79 68 73 80 99 94 96 75 64 67 70 77 80 82
61 65 64 58 60 60 59 58 59 58 62 77 96 95 99 96 92 90 70 70 86 87 80 86 89 87 82 88 81 90 93 85 97 90 78 75 75 90 98 98 86 62 62 67 72 89 79
63 64 68 60 61 59 57 57 59 57 58 74 91 88 98 99 93 92 72 67 65 83 87 89 87 86 84 91 92 85 90 72 94 90 96 96 97 97 92 97 81 60 60 78 87 76 80
64 67 68 60 63 61 57 58 56 57 56 75 89 88 95 98 95 81 88 86 73 76 81 92 87 88 94 96 93 90 96 73 82 82 74 83 92 95 93 97 95 57 72 84 72 81 80
65 66 69 61 67 64 60 61 59 57 54 59 92 82 88 98 93 92 84 82 87 79 86 89 84 90 87 91 96 96 95 93 85 91 84 93 83 92 85 78 58 63 73 78 75 78 82
Wind_Speed
18 15 18 19 21 22 22 22 23 24 23 22 21 19 19 20 20 19 19 19 20 19 18 18 19 13 6 5 10 8 7 20 15 9 10 9 6 5 7 7 4 3 3 4 6 7 4
21 19 19 20 20 21 22 26 24 24 24 19 17 18 18 18 19 19 19 20 18 18 18 17 19 14 5 10 7 8 3 11 8 9 7 7 6 7 5 4 8 4 8 6 4 4 4
19 20 19 21 23 24 24 22 23 21 20 22 23 21 19 19 18 19 18 17 19 19 19 19 21 10 9 15 5 5 6 7 7 9 6 7 4 4 4 3 5 2 5 2 4 3 4
19 20 19 21 23 23 23 23 22 22 22 22 21 19 18 17 18 16 15 18 17 18 18 19 14 9 5 7 12 6 4 4 7 7 10 5 3 1 3 1 3 5 4 1 4 2 6
19 21 23 19 22 24 25 23 22 23 22 21 19 18 17 17 16 14 18 19 21 20 18 15 9 7 4 4 6 9 4 4 7 4 6 7 4 1 2 6 3 1 4 5 6 7 6
20 22 22 23 24 25 23 23 21 22 21 20 19 17 17 18 13 13 17 21 19 15 7 5 3 4 5 6 6 6 5 3 4 12 6 4 4 3 2 4 7 6 4 3 5 4 2
21 21 22 23 23 22 22 22 22 22 22 20 19 19 18 19 15 9 9 5 6 3 3 4 6 5 3 3 7 6 5 5 5 4 4 4 3 7 5 5 3 4 2 2 4 4 5
21 22 22 22 22 23 23 23 23 21 20 19 19 18 19 17 16 14 2 2 2 2 3 10 8 15 11 6 10 9 8 6 6 5 6 3 2 6 10 6 6 1 3 4 6 1 3
20 21 22 22 22 22 23 23 22 22 21 20 20 18 16 16 16 4 2 6 4 3 2 2 9 11 6 4 4 12 9 5 8 7 4 5 1 7 6 6 7 4 3 2 4 6 1
20 22 22 22 22 21 23 22 22 23 21 21 21 18 17 17 6 2 6 3 5 2 2 3 8 6 5 6 4 4 6 5 4 9 7 3 2 4 4 3 4 2 1 3 3 4 4
21 22 22 23 23 21 21 24 24 24 23 22 21 20 19 15 4 1 1 4 7 1 5 9 6 12 3 1 13 6 3 3 5 8 6 4 5 3 4 3 4 3 4 4 2 3 4
21 20 22 24 22 22 22 24 24 24 24 23 25 24 21 8 3 6 5 3 0 2 3 5 7 10 8 5 3 7 3 4 3 6 5 2 2 3 4 4 4 7 5 6 4 3 3
18 20 22 22 24 22 23 24 25 25 25 27 28 23 13 2 1 4 7 2 3 1 2 4 8 14 12 5 5 7 6 3 5 6 4 2 2 1 3 7 3 5 6 3 5 3 7
19 19 22 24 22 23 24 24 25 25 27 27 23 9 5 4 3 8 3 1 3 4 2 5 13 14 6 8 11 7 6 4 3 6 5 5 2 6 2 5 6 4 7 6 5 3 5
17 19 19 22 22 24 24 25 26 26 25 27 12 4 4 6 4 3 3 2 1 4 4 10 15 8 5 5 6 5 2 5 3 3 6 5 1 3 4 3 6 3 2 4 3 4 3
17 19 20 21 22 23 24 25 26 27 26 17 2 2 4 6 4 5 2 5 3 4 7 7 5 1 4 4 5 3 7 4 3 6 2 5 5 2 2 4 1 4 6 4 4 1 4
16 19 21 22 21 22 23 25 27 28 24 6 3 4 4 6 3 3 2 3 4 6 6 2 3 5 6 6 6 3 9 1 7 4 4 2 5 1 4 4 7 4 2 1 4 4 4
16 18 21 21 22 21 23 25 27 27 23 8 2 4 3 3 3 1 3 6 8 6 6 4 5 7 4 4 4 4 7 3 8 6 6 1 5 4 6 2 4 4 6 6 5 3 2
15 18 19 20 21 21 23 24 26 25 20 2 2 1 1 2 2 2 3 3 4 7 9 3 4 3 5 5 6 5 4 5 8 8 8 4 1 2 2 5 3 3 5 5 4 2 7
14 16 18 19 20 20 21 24 26 26 21 3 1 2 4 1 2 1 4 3 2 3 4 5 5 13 5 3 3 4 3 4 3 3 9 7 3 5 6 5 4 3 5 7 7 3 4
13 14 17 18 19 20 20 23 25 27 23 3 2 1 2 3 3 2 3 6 6 6 7 8 7 3 5 3 4 4 4 3 6 4 4 5 4 1 4 6 3 4 6 8 9 18 7
12 13 14 16 17 18 20 22 23 26 20 4 2 3 3 2 2 4 3 4 6 5 4 3 5 4 7 4 2 5 6 4 4 1 3 2 2 2 6 5 7 6 10 11 13 15 15
10 12 12 14 16 17 18 19 20 22 14 3 2 3 1 4 2 0 2 2 5 3 8 7 6 6 9 3 4 3 5 6 7 7 3 5 3 2 5 3 3 6 12 15 6 6 8
10 12 10 12 14 15 16 17 17 18 15 1 2 2 2 3 1 1 3 2 4 3 5 3 7 5 0 2 3 5 9 7 5 3 5 5 5 3 4 4 1 7 2 6 11 9 9
9 11 9 10 12 13 15 15 15 15 14 1 2 2 2 3 2 4 3 3 3 5 4 4 5 1 3 4 3 3 2 2 3 2 4 5 4 1 1 2 7 2 1 1 5 7 3
10 10 8 10 10 11 12 13 13 14 14 3 1 2 1 3 4 3 2 3 3 2 2 3 1 2 4 2 1 3 4 4 3 2 3 3 3 2 2 0 3 3 1 2 4 5 4
11 11 10 8 9 11 11 13 13 12 12 4 2 1 1 2 4 3 3 3 4 3 3 3 1 2 2 2 1 3 3 4 6 8 6 4 2 5 4 3 7 8 4 3 1 5 2
10 12 10 8 9 9 12 11 13 12 10 5 4 1 1 2 6 3 4 1 1 2 3 3 2 0 1 1 2 2 2 3 3 5 7 8 6 4 4 3 8 3 3 2 3 2 3
11 12 10 10 10 9 11 11 13 10 10 5 2 1 0 3 5 3 7 6 3 2 4 1 1 2 3 1 1 1 2 2 2 3 3 5 7 6 7 7 5 3 4 0 1 3 3
Wind_Direction
332 341 347 334 329 329 333 333 330 328 325 322 321 317 318 316 312 311 308 304 297 302 296 300 308 172 153 212 243 283 284 181 191 172 176 182 173 171 181 176 233 217 262 225 247 269 244
340 344 340 332 332 331 333 333 335 333 332 329 317 312 313 304 310 309 307 303 297 298 293 291 304 166 141 229 261 257 156 166 162 166 179 169 192 208 206 186 171 204 209 251 263 238 242
338 335 332 339 344 335 334 335 333 331 327 315 322 325 315 313 313 308 310 308 302 296 290 289 301 183 161 216 300 176 156 177 172 179 174 194 206 189 165 131 193 177 166 293 239 229 253
339 331 343 343 338 330 334 330 332 328 325 326 325 323 314 319 317 318 316 313 303 289 288 285 281 212 212 206 253 278 164 178 196 187 207 200 121 224 167 211 115 128 69 211 263 253 245
328 340 333 334 330 335 333 331 328 326 332 327 328 325 321 319 320 322 324 313 297 289 286 290 292 171 211 134 188 222 161 190 129 89 121 113 97 131 108 135 74 32 165 204 303 218 225
343 337 343 341 341 338 338 336 331 330 333 332 329 323 319 320 322 328 328 319 286 285 270 42 94 84 269 198 155 178 199 202 134 124 119 119 142 115 120 142 196 192 184 211 230 285 255
338 340 342 336 341 338 339 337 336 334 333 334 333 331 324 320 327 330 335 347 5 28 221 168 189 241 164 161 127 176 173 145 117 118 132 156 160 169 143 202 135 156 137 232 260 294 320
339 336 338 345 339 341 340 338 334 336 332 331 329 329 324 321 322 317 358 299 265 169 306 226 270 264 293 151 157 180 144 159 137 133 121 108 212 194 171 189 212 245 282 287 285 245 306
339 338 339 343 341 341 335 339 335 332 335 331 329 327 324 326 321 340 250 243 163 170 303 318 223 243 187 116 121 165 165 150 146 132 146 141 149 158 156 170 189 159 163 219 258 322 8
339 341 335 341 338 340 337 339 334 334 337 338 332 328 324 328 330 317 295 235 170 104 127 191 190 204 261 135 71 107 194 141 146 151 135 162 253 140 149 137 120 115 126 164 47 34 268
342 346 337 340 339 339 340 336 336 340 340 332 326 318 309 303 260 258 351 142 144 102 131 148 171 152 153 120 140 204 40 25 143 130 110 225 160 129 105 179 133 165 98 91 79 68 3
342 344 338 342 342 340 342 337 340 340 331 330 327 318 313 293 182 211 135 139 210 54 189 185 125 157 130 124 94 126 99 37 88 112 78 94 69 100 160 59 127 125 72 38 56 71 348
347 343 340 347 346 345 346 341 343 338 337 332 320 313 311 279 343 128 127 134 57 348 312 136 138 143 123 121 118 134 144 114 132 121 115 45 30 78 95 90 46 90 67 357 355 1 230
350 341 347 347 349 350 347 346 342 342 340 333 337 8 346 8 103 120 116 42 88 235 257 167 135 118 88 124 136 134 131 118 46 82 107 136 302 174 185 158 173 157 142 156 213 226 285
348 339 349 343 350 350 347 348 345 345 339 337 352 344 35 8 66 52 30 13 301 243 175 127 112 104 112 71 116 130 136 156 169 155 126 121 274 113 155 131 131 199 111 194 82 24 38
351 339 346 350 351 350 349 349 349 343 335 345 49 21 25 327 32 44 355 336 5 293 99 116 80 102 105 116 114 129 152 198 199 181 174 193 97 153 156 94 97 130 154 63 355 102 269
347 344 349 353 348 351 354 351 352 347 354 64 53 62 327 343 25 79 291 332 309 118 118 38 116 100 94 122 121 108 179 199 178 184 172 118 97 320 122 203 182 142 187 177 120 158 188
350 348 355 355 353 355 355 357 356 357 359 41 64 62 290 9 40 10 293 316 326 189 264 288 87 103 112 112 131 134 179 258 188 154 160 69 110 166 208 265 188 160 192 166 131 246 233
353 349 356 357 356 357 356 359 358 359 3 339 42 333 195 93 35 323 263 294 269 211 240 115 114 133 137 125 138 118 114 341 182 159 153 163 92 95 66 6 12 184 198 188 128 114 205
352 356 352 360 359 358 359 359 358 357 354 84 45 22 325 335 133 5 328 340 299 296 30 75 96 127 99 95 58 122 102 30 59 115 145 95 144 166 181 200 147 196 190 194 157 177 198
354 357 352 358 359 3 3 0 360 356 350 110 22 11 296 350 27 304 359 324 31 22 16 42 93 126 125 119 108 103 106 84 24 47 69 109 184 215 249 250 205 224 220 198 194 230 234
348 357 353 356 358 3 2 359 2 0 357 75 26 354 329 294 324 353 339 341 29 2 28 80 94 73 88 75 260 155 123 128 183 36 104 41 168 40 293 267 220 241 235 225 232 246 255
339 348 354 355 356 358 359 359 1 8 12 33 339 317 301 303 302 43 272 314 359 36 20 43 127 87 64 30 39 57 111 138 158 143 133 133 139 86 272 339 300 284 223 209 203 219 221
328 341 352 352 352 357 357 1 0 8 17 317 345 318 330 292 307 279 357 78 49 18 118 14 41 80 270 103 124 53 56 75 104 141 126 124 119 135 256 359 300 248 252 184 201 238 219
317 338 346 344 346 351 351 355 355 358 10 8 293 321 315 272 275 319 17 119 67 44 64 64 23 329 320 48 79 103 35 73 192 192 159 134 136 200 289 264 278 225 258 138 201 280 184
313 325 330 337 337 339 341 346 349 348 355 3 284 308 323 297 253 268 276 164 149 121 54 83 323 332 48 78 72 185 201 190 158 142 68 127 160 130 349 210 254 255 191 360 111 288 200
311 314 319 323 320 330 331 335 332 339 345 348 268 111 244 273 273 322 214 199 153 123 123 109 94 30 31 104 149 213 257 168 162 172 171 173 190 228 220 277 286 250 268 145 32 252 234
307 308 313 320 314 314 323 323 318 327 341 7 285 90 55 298 281 272 308 23 25 111 146 161 95 302 70 191 186 202 220 255 134 162 164 179 175 197 185 223 268 226 89 222 236 258 252
304 304 313 313 310 309 313 308 309 306 319 332 287 3 11 222 275 310 283 278 264 332 128 141 151 181 198 148 157 98 291 321 185 209 148 204 191 180 197 212 246 263 232 43 267 243 251